Regional Weather Roundup
Issued by NWS Newport/Morehead, NC

Current Version | Previous Version | Text Only | Print | Product List | Glossary Off
Versions: 1 2 3 4 5 6 7 8 9 10 11 12 13 14 15 16 17 18 19 20 21 22 23 24 25 26 27 28 29 30 31 32 33 34 35 36 37 38 39 40 41 42 43 44 45 46 47 48 49 50
469 ASUS42 KMHX 271513 RWRMHX WEATHER ROUNDUP FOR EASTERN NORTH CAROLINA NATIONAL WEATHER SERVICE NEWPORT/MOREHEAD CITY NC 1000 AM EST MON FEB 27 2017 NOTE: "FAIR" INDICATES FEW OR NO CLOUDS BELOW 12,000 FEET WITH NO SIGNIFICANT WEATHER AND/OR OBSTRUCTIONS TO VISIBILITY NCZ015>017-031-032-045>047-102-103-271600- NORTH COAST CITY SKY/WX TMP DP RH WIND PRES REMARKS EDENTON CLOUDY 55 38 53 SE7 30.47F ELIZABETH CITY MOSUNNY 54 33 45 E10 30.49R KITTY HAWK NOT AVBL MANTEO SUNNY 56 27 32 E6 30.48R $$ NCZ045>047-081-094-103-104-271600- CENTRAL COAST CITY SKY/WX TMP DP RH WIND PRES REMARKS FRISCO SUNNY 63 40 42 SE8 30.43F $$ NCZ095-097-098-100-101-271600- SOUTHERN COAST CITY SKY/WX TMP DP RH WIND PRES REMARKS BEAUFORT SUNNY 64 42 44 NE8 30.42S CEDAR ISLAND NOT AVBL JACKSONVILLE MOSUNNY 54 39 57 SE8 30.44R PINEY ISLAND NOT AVBL WILMINGTON SUNNY 61 39 44 E8 30.43R $$ NCZ011>013-027>030-043-044-078>080-089-090>093-098-271600- COASTAL PLAIN CITY SKY/WX TMP DP RH WIND PRES REMARKS AHOSKIE N/A 50 35 54 SE6 30.48R CLINTON SUNNY 57 34 41 CALM 30.45S ELIZABETHTOWN SUNNY 55 39 56 E3 30.43S GOLDSBORO SUNNY 58 25 29 E8 30.44R GREENVILLE SUNNY 54 37 54 CALM 30.47R HAVELOCK MOSUNNY 61 36 39 N9 30.45R KENANSVILLE SUNNY 57 34 41 E5 30.46R KINSTON SUNNY 57 28 33 E3 30.48R NEW BERN SUNNY 58 31 35 E6 30.46R RICHLANDS SUNNY 58 33 39 VRB5 30.46R ROCKY MOUNT SUNNY 55 33 43 SE8 30.46S WASHINGTON SUNNY 56 35 46 SE7 30.48R WHITEVILLE SUNNY 57 37 46 E6 30.42R $$ AMZ130-135-150-152-154-156-158-170-250-252-270-ANZ085-086-088-633-658-670-271600- MARINE OBSERVATIONS STATION/POSITION TIME TEMP WIND PRES WAVE SWELL AIR SEA DIR/SP/G HT/PER HT/PER (UTC) (F) (DEG/KT/KT) (MB) (FT/S) (FT/S) CHESAPEAKE LIGHT NOT AVBL 64 E VA BEACH 1450 50 48 50/ 4/ 6 1032.0 3/ 9 3/ 9 DUCK 1448 52 49 80/ 2/ 2 1032.0 2 E DUCK 1430 49 N/A 2/ 9 OREGON INLET 1442 52 55 20/ 6/ 9 1031.8 13E OREGON INLT NOT AVBL HATTERAS CG 1448 59 60 100/ 5/ 9 1030.2 DIAMOND BUOY 1450 61 71 100/ 10/ 12 1030.7 4/ 8 3/ 8 CAPE LOOKOUT 1400 60 80/ 11/ 12 1029.6 BEAUFORT LAB 1448 61 61 70/ 7/ 9 1029.2 30 SE NEW RVR IN 1408 62 100/ 12/ 16 1029.2 30 SE NEW RVR IN 1443 65 N/A 3/ 8 27 SE WRIGHTSVLE 1408 63 62 120/ 16/ 21 1028.3 5 SE WRIGHTSVLE 1408 59 58 100/ 12/ 17 1028.9 225 S CAPE HAT 1450 66 70 80/ 12/ 16 1029.6 4/ 8 3/ 8 41 SE CHARLESTON 1350 66 69 110/ 16/ 19 1026.5 3/ 9 3/ 9 $$

USA.gov is the U.S. government's official web portal to all federal, state and local government web resources and services.